Wind_Speed
12 12 15 19 20 21 23 26 28 28 28 27 24 22 21 20 18 17 16 14 12 10 9 10 10 12 13 12 11 11 13 15 15 16 16 16 15 15 15 15 16 16 17 17 17 17 18 19 18 19 19 19 19 20 19 17 17 17 18 18 16 14 12 11 8 7 6 4 3 3 3 4 6 8 9 9 9 9 8 8 8 8 7 7 7
12 13 15 19 21 21 24 26 27 28 29 29 27 24 23 22 20 18 16 13 10 9 8 9 10 11 12 12 12 12 13 15 16 17 17 17 16 15 15 15 16 16 16 17 17 18 19 19 19 20 20 19 19 20 19 18 18 18 18 18 16 13 11 11 9 6 5 5 3 2 1 4 6 8 8 9 9 9 8 8 9 9 8 8 8
10 13 17 21 23 23 25 28 27 28 29 29 27 25 24 23 21 18 15 13 11 9 8 9 10 10 11 12 12 12 14 15 16 17 18 18 17 16 15 15 15 16 16 16 17 18 19 18 19 19 20 20 20 20 20 19 19 18 18 17 14 12 11 11 10 6 5 3 2 2 2 5 7 7 8 9 10 9 9 9 9 9 9 9 9
3 9 16 22 26 27 28 29 28 29 30 28 27 25 24 23 21 19 16 14 12 10 9 9 9 10 11 12 13 13 14 15 16 18 19 19 18 17 17 16 16 17 17 17 17 17 17 17 18 19 19 20 20 21 22 21 20 19 18 16 14 12 11 12 12 8 6 6 6 4 4 6 7 8 9 10 10 9 10 10 9 9 10 10 10
3 7 16 25 30 28 28 28 26 28 31 29 28 26 25 23 22 20 18 16 14 12 10 9 9 10 11 12 13 14 15 15 15 17 18 19 18 18 18 17 18 18 18 18 18 17 17 17 18 19 19 20 21 22 22 22 21 20 18 16 14 12 12 14 14 11 8 9 9 6 6 9 10 9 9 9 9 10 10 10 10 11 11 11 11
3 5 9 22 30 27 24 25 24 26 30 30 28 28 26 25 24 22 19 18 16 14 12 10 9 9 10 12 12 12 14 14 15 16 17 18 18 19 18 18 19 19 18 18 18 18 17 17 18 18 18 20 21 22 23 23 22 21 19 17 16 15 16 16 15 12 10 11 11 8 6 9 9 9 9 10 10 9 9 10 12 13 13 13 13
4 2 2 12 23 25 24 23 23 25 29 30 28 27 27 26 24 22 21 19 17 15 13 11 9 7 8 10 10 11 12 13 14 15 16 17 18 18 18 17 18 19 19 18 17 17 17 17 17 17 18 20 21 22 23 24 23 21 20 19 18 19 19 16 12 11 12 13 13 10 7 7 9 9 11 13 13 12 11 11 12 13 14 15 14
11 9 7 10 15 20 24 24 22 23 25 28 28 26 26 26 25 23 22 21 18 16 14 11 9 7 7 9 9 10 11 11 13 14 15 16 17 17 17 17 18 18 19 20 18 17 17 17 17 18 19 20 20 21 23 23 22 21 19 19 20 20 19 14 10 10 12 13 14 13 10 9 9 9 11 12 13 12 13 13 13 14 15 16 15
16 16 17 17 17 20 24 26 25 23 22 25 29 27 27 27 27 26 24 22 19 17 16 13 10 8 8 9 9 10 11 11 12 13 14 15 16 16 17 17 17 18 19 19 18 18 18 19 19 20 21 22 21 21 23 23 22 20 19 19 20 20 17 12 10 11 13 14 15 15 14 13 12 11 10 10 10 11 14 16 16 15 17 18 16
21 19 18 20 23 25 27 27 27 26 23 23 27 30 30 29 29 28 27 24 21 19 18 15 12 11 10 10 10 10 11 12 13 13 14 14 15 15 16 17 17 17 18 18 17 18 20 21 21 21 21 23 23 23 23 23 22 21 20 20 20 18 14 12 12 14 16 16 15 14 14 14 14 13 13 13 13 15 16 18 17 17 19 20 18
21 21 21 22 23 25 28 29 30 30 26 24 27 31 32 31 31 31 29 26 23 22 20 17 15 15 13 11 11 10 11 12 13 14 15 15 15 16 16 17 17 17 18 18 17 19 19 20 21 22 21 23 25 24 24 24 23 23 22 22 21 18 16 15 15 17 18 18 16 15 15 15 15 17 17 18 18 19 20 21 21 20 22 24 24
20 22 23 24 22 22 27 32 32 30 28 28 29 33 35 35 34 33 31 28 26 24 21 19 18 18 16 13 12 11 11 11 13 14 16 17 17 17 17 18 18 18 18 19 20 20 19 18 20 21 20 21 23 23 24 25 25 25 23 23 22 21 18 18 18 19 19 19 18 18 18 18 19 20 21 22 23 24 24 25 25 26 26 27 28
18 20 23 25 24 25 29 32 31 29 29 31 31 33 38 39 37 34 32 29 27 25 23 22 22 20 17 15 13 12 11 12 13 15 16 18 18 19 19 19 19 18 18 18 19 20 19 18 19 20 21 21 21 22 23 25 25 25 24 23 23 22 21 19 19 20 21 21 21 22 22 22 23 23 24 25 26 28 29 29 30 30 30 29 30
17 18 19 22 25 28 29 30 31 30 29 31 32 33 36 38 37 35 33 30 29 27 25 24 24 22 19 16 14 12 12 13 14 16 18 19 20 20 21 21 21 20 17 16 16 17 17 17 18 19 20 21 21 21 23 24 25 26 26 25 24 24 23 22 22 22 22 23 23 24 25 26 26 27 27 28 29 30 31 32 32 32 33 33 33
16 17 18 19 22 25 25 26 29 31 31 32 31 31 34 36 37 37 35 32 30 28 26 26 25 23 20 17 14 12 12 14 16 17 19 21 21 21 22 23 23 21 18 16 16 16 14 14 16 18 19 20 21 22 23 24 25 26 26 26 26 26 26 26 26 26 26 26 27 27 28 29 29 30 30 30 30 31 32 32 33 34 35 36 37
14 15 15 17 19 20 22 23 25 29 35 36 33 33 36 36 37 39 37 34 32 30 28 28 27 24 21 17 14 13 14 16 18 19 20 21 22 22 23 24 24 23 20 19 18 17 16 16 16 17 19 20 22 23 24 24 25 25 26 26 27 28 28 29 29 29 30 30 30 31 31 31 32 32 32 32 33 33 34 34 35 36 38 39 40
15 13 11 11 13 14 17 20 22 26 35 38 35 33 36 37 37 40 39 36 34 32 31 31 29 26 23 19 16 14 14 17 19 20 20 21 21 22 23 23 25 25 24 23 22 21 20 20 19 19 19 20 22 23 24 24 25 25 26 27 28 29 30 31 31 32 32 32 33 33 33 34 34 34 34 35 36 36 37 37 38 39 41 42 43
15 14 13 11 10 11 13 17 22 25 31 37 36 34 35 36 37 40 39 36 35 34 34 33 31 28 25 21 18 16 15 17 20 21 21 21 21 22 22 22 23 24 25 25 24 23 23 22 22 21 21 20 20 21 22 23 23 24 24 25 26 27 28 29 30 30 31 31 32 32 33 34 35 35 36 37 38 39 39 40 41 42 44 45 47
12 12 11 11 10 11 13 16 20 22 24 32 39 38 34 34 37 40 38 36 37 37 36 35 32 30 26 23 20 17 16 17 20 21 22 22 21 22 22 21 22 22 23 23 22 22 22 21 21 20 20 21 21 20 21 21 21 22 22 22 23 24 24 25 26 27 27 28 30 31 32 34 35 35 37 38 39 41 42 43 44 45 47 48 50
10 8 7 7 6 8 10 13 17 19 21 31 40 40 36 34 36 38 37 36 38 38 37 36 33 30 27 23 21 19 18 19 22 23 23 22 21 21 21 21 21 21 21 20 20 20 20 19 19 18 19 19 20 21 21 22 22 22 23 23 24 24 24 25 26 27 28 29 31 32 33 34 36 37 38 40 41 43 44 46 47 49 50 52 53
11 8 5 4 5 8 9 12 18 21 24 31 35 37 39 39 36 36 36 36 38 37 36 35 33 29 26 23 21 21 22 23 25 25 25 23 22 20 20 20 20 20 20 20 20 20 20 20 20 20 20 21 21 22 22 23 23 23 24 24 25 26 27 27 28 29 30 32 33 34 35 37 38 40 41 43 44 46 47 48 49 51 52 53 54
12 10 7 5 4 7 10 13 18 23 26 28 30 33 37 37 36 38 38 38 38 35 32 32 30 27 26 25 23 24 27 28 28 28 28 26 25 23 22 22 21 21 20 21 22 23 23 23 24 24 24 24 24 24 24 25 25 25 26 27 28 29 30 30 31 32 33 34 35 36 38 39 40 41 42 44 45 45 46 47 48 49 50 50 51
12 9 7 6 5 8 10 12 16 20 20 20 21 25 30 34 37 40 39 39 38 33 27 26 27 27 28 28 27 29 30 30 30 30 29 28 27 26 25 25 25 24 24 24 24 24 25 25 26 27 27 27 27 27 27 27 27 28 29 29 30 31 32 32 33 33 34 35 36 36 38 39 39 40 41 42 43 43 44 45 46 46 47 47 48
10 9 7 5 5 7 10 11 13 16 17 16 15 17 24 31 36 39 40 39 35 30 26 27 27 28 30 30 31 32 31 29 29 29 29 28 27 26 25 24 24 25 25 25 26 26 26 27 27 28 29 29 29 29 28 29 29 29 30 30 31 31 32 32 33 33 33 34 35 35 36 36 37 38 39 40 41 42 42 43 43 44 44 45 45
7 8 7 6 4 4 5 7 9 11 15 18 19 20 22 25 27 30 33 33 31 29 30 30 30 30 32 32 33 33 32 30 28 28 28 28 28 28 25 23 22 21 22 23 24 25 25 26 26 27 27 28 28 28 28 29 29 29 29 29 29 30 30 31 31 32 32 33 34 34 35 36 36 37 38 38 39 40 40 40 40 41 41 41 42
7 7 7 6 5 4 2 2 3 4 6 8 12 16 19 21 21 22 24 25 27 29 30 29 29 29 31 31 32 33 33 32 31 30 29 29 28 27 26 24 22 22 22 23 25 25 25 25 26 25 25 26 27 27 27 27 27 27 27 27 28 28 29 30 30 31 32 32 33 33 33 33 34 35 35 36 36 37 37 37 37 36 36 37 37
7 7 7 7 6 5 4 3 2 1 1 1 2 5 8 11 14 16 18 20 22 24 24 24 24 24 25 27 28 30 32 32 31 30 29 28 28 28 27 27 26 27 27 27 27 26 25 25 25 24 23 24 24 24 25 25 26 26 26 27 28 28 29 30 30 30 30 30 30 30 30 31 31 32 32 33 33 33 34 34 35 35 35 35 36
7 7 6 6 6 5 5 4 3 2 1 1 0 0 1 3 5 7 9 11 14 16 17 18 18 17 19 21 23 25 26 27 27 27 27 27 26 26 26 26 25 25 25 24 23 22 21 20 20 20 20 21 22 23 25 25 26 26 27 27 28 28 28 28 28 28 28 28 28 28 28 28 29 29 29 29 30 31 32 34 35 36 36 37 37
8 7 6 6 5 5 5 5 4 3 2 0 0 0 0 1 2 4 5 6 8 10 11 12 12 12 13 14 16 18 18 18 19 19 20 20 19 18 18 18 18 18 17 17 16 15 15 16 18 19 21 22 23 24 25 25 25 25 25 25 25 25 25 26 26 26 26 26 25 25 25 25 25 26 27 28 30 31 33 34 35 35 36 36 36
11 10 8 7 6 5 5 5 5 4 3 2 1 1 2 2 2 3 4 4 5 5 6 6 6 7 8 9 10 11 11 11 11 11 11 11 11 11 12 12 12 12 11 12 12 13 15 17 19 20 21 22 23 23 23 22 22 22 22 22 22 23 23 24 24 23 23 23 23 22 23 24 25 26 27 29 30 31 32 32 33 33 33 34 34
11 11 9 9 7 6 5 5 5 5 5 5 4 4 3 3 3 3 4 4 4 4 4 4 4 4 4 5 6 6 7 7 7 7 7 7 8 8 9 9 9 10 11 12 13 15 17 18 19 20 21 21 20 20 20 20 20 19 20 20 21 21 21 21 20 20 20 20 21 21 22 23 25 26 27 27 28 28 29 29 29 30 30 31 31
12 12 11 10 9 7 7 6 6 6 6 6 6 6 6 6 6 5 5 5 5 5 5 5 4 4 4 5 5 5 5 5 6 6 7 8 9 9 9 10 11 12 13 14 15 16 17 18 19 19 18 18 17 17 18 18 18 18 19 19 18 18 18 18 18 18 18 18 19 20 22 23 24 25 25 25 26 26 26 26 27 28 29 30 31
11 12 12 11 10 9 9 8 8 8 8 8 7 7 7 7 8 8 8 8 7 7 7 7 7 7 8 8 8 7 7 8 8 8 9 10 11 11 11 12 13 14 15 15 16 17 17 17 17 16 16 16 16 16 16 16 16 17 17 17 17 17 17 17 17 16 17 18 19 20 21 22 23 24 24 24 25 25 26 26 28 29 30 30 31
10 11 12 11 11 10 10 10 10 9 9 9 9 9 9 9 9 9 9 9 9 9 9 9 10 10 11 10 10 10 10 10 10 11 12 12 12 12 13 14 14 15 15 16 16 16 16 15 14 14 14 15 15 15 15 15 15 15 15 15 16 16 16 16 16 16 17 18 19 20 21 22 22 22 23 23 24 25 26 27 28 29 30 30 30
10 10 11 11 11 11 11 11 11 11 10 10 10 10 10 10 10 10 10 10 10 10 11 11 12 12 12 11 11 11 11 11 11 11 12 13 13 13 13 14 14 14 14 14 14 14 14 13 13 13 13 14 13 13 13 14 14 14 14 14 14 15 15 15 15 16 17 18 19 19 20 21 21 22 23 24 25 26 27 27 27 28 29 29 29
11 11 11 11 11 11 11 11 10 11 11 11 11 10 10 10 11 11 10 10 10 10 12 13 14 13 12 11 12 12 12 13 13 13 13 13 13 13 13 13 13 13 13 13 13 13 13 12 12 12 12 12 12 12 12 12 12 12 13 13 14 14 14 15 15 16 16 17 18 18 19 20 21 22 23 24 25 26 26 26 26 27 27 28 28
12 11 10 10 9 8 8 9 9 9 10 11 11 11 10 10 11 11 10 10 10 10 12 13 14 13 12 12 12 13 13 13 13 13 13 12 12 12 12 12 12 12 12 12 13 13 12 11 11 11 11 11 10 11 11 11 11 12 13 13 14 14 14 14 14 15 16 16 17 19 20 21 22 23 23 24 25 26 26 26 26 26 27 26 25
12 10 8 8 7 6 7 8 7 8 8 8 10 11 12 12 12 12 11 10 9 10 11 12 13 12 11 11 12 13 13 13 13 12 11 11 11 11 12 12 12 12 11 11 11 11 11 10 10 9 9 9 9 10 11 11 12 13 13 13 13 13 13 13 14 15 16 17 19 20 21 22 23 24 24 25 26 26 26 26 25 26 25 24 22
11 7 4 5 5 5 6 7 7 8 8 8 8 10 12 13 13 12 12 12 10 10 11 12 13 12 11 11 12 13 13 13 13 12 11 11 11 11 12 12 11 10 10 10 10 9 9 9 9 8 8 9 9 10 11 11 11 12 12 12 12 12 12 14 15 16 18 19 20 21 22 23 24 24 25 25 25 25 25 25 24 24 23 21 19
9 6 3 5 5 4 6 8 9 9 9 8 9 10 11 12 13 12 13 13 12 11 11 12 13 13 12 11 12 13 13 13 13 12 11 11 12 12 11 11 10 9 9 9 9 8 8 8 8 8 8 8 9 9 9 9 10 10 10 11 12 13 14 15 16 18 19 20 21 21 22 22 23 24 24 25 25 24 24 23 22 22 21 20 18
8 5 4 5 6 5 7 9 10 10 9 9 9 10 10 11 12 12 13 14 13 11 11 12 12 13 13 13 13 14 14 13 13 13 13 13 12 12 11 10 9 9 9 8 8 7 7 6 6 6 7 7 7 8 8 9 9 10 10 12 13 14 15 16 17 18 19 20 20 21 21 22 23 23 23 23 23 23 22 21 20 20 20 19 18
6 5 4 6 7 7 9 10 10 9 10 10 10 10 10 10 11 12 13 13 12 11 11 12 12 12 12 12 13 13 14 14 14 13 13 13 12 11 11 10 9 8 8 7 6 6 5 5 5 5 6 6 7 8 9 10 10 11 11 12 13 14 15 16 17 18 19 19 20 20 21 22 22 22 22 22 21 20 20 19 18 18 18 17 16
5 5 7 8 7 7 9 10 10 9 10 11 11 10 10 10 10 11 12 13 13 11 10 11 12 12 11 11 12 12 12 13 13 13 13 12 12 11 10 9 8 8 7 6 5 4 4 4 4 5 6 7 8 9 10 11 12 12 13 13 14 15 15 16 17 18 18 18 19 19 20 21 21 20 20 19 18 18 17 17 16 16 17 16 15
4 6 9 10 6 7 9 10 10 10 12 13 12 11 10 10 9 9 10 11 12 11 10 10 11 11 11 11 11 10 11 12 12 12 12 11 10 9 8 8 7 6 5 4 4 3 3 4 5 6 7 8 9 10 10 11 12 13 14 15 16 16 16 17 17 17 17 17 18 18 18 18 18 17 17 16 15 15 15 14 14 15 15 15 14
4 5 5 6 6 9 11 10 10 11 12 13 13 11 10 9 9 9 9 9 9 10 10 10 9 10 10 10 10 10 10 11 12 11 11 10 9 8 7 7 6 5 4 3 3 3 4 5 6 7 8 9 11 11 12 13 14 14 15 15 16 16 16 16 16 16 15 16 16 16 15 15 14 14 14 13 13 13 13 13 13 13 13 13 13
5 5 6 6 8 9 10 10 11 11 12 13 13 12 11 9 9 9 9 9 9 10 10 10 9 9 9 9 9 10 10 10 11 10 10 9 8 7 7 6 5 5 4 3 3 4 4 5 6 7 8 9 11 12 13 13 14 14 14 14 14 14 14 14 14 14 14 14 14 14 13 13 12 12 12 12 12 12 12 13 13 13 12 12 12
7 8 9 10 11 11 11 11 11 12 12 13 13 13 12 10 10 10 10 11 10 10 10 10 9 8 8 9 9 10 10 11 10 10 9 9 8 8 7 6 5 4 3 3 3 4 4 5 5 6 8 9 10 11 11 12 12 12 11 11 11 12 12 12 12 12 12 12 12 12 12 12 11 11 11 11 11 11 12 12 12 12 12 11 11
8 9 10 11 12 13 14 13 13 13 13 13 13 13 12 10 10 11 11 11 11 10 9 9 9 8 8 9 9 10 11 11 11 10 10 9 9 8 7 5 4 3 2 2 2 3 4 4 5 5 7 7 8 9 9 9 9 9 9 9 9 10 10 10 11 11 11 10 10 11 11 11 10 10 10 10 10 10 10 11 11 11 11 11 10
10 11 12 12 12 13 14 15 15 14 14 14 14 13 11 9 9 10 11 11 11 9 8 7 7 7 8 9 9 9 9 9 10 9 9 8 8 7 6 4 3 2 2 2 2 2 3 4 5 6 6 7 7 7 7 7 7 8 8 8 8 9 9 9 9 9 9 9 10 10 10 10 10 10 10 10 9 9 9 10 10 10 10 10 10
11 12 12 13 12 13 15 16 16 15 14 14 15 14 12 9 8 9 10 10 10 9 7 6 6 7 8 9 9 8 8 8 8 8 8 7 7 6 5 4 3 2 2 2 1 1 2 4 5 5 6 6 6 6 7 7 7 7 7 7 7 8 8 8 8 8 9 9 10 10 10 10 10 10 10 10 10 9 10 10 10 9 9 9 9
11 11 12 12 13 15 17 17 16 15 14 14 15 15 13 10 8 8 9 9 9 8 6 6 7 7 8 9 8 8 8 8 8 8 7 6 6 6 5 5 4 3 2 1 0 1 2 3 4 5 5 6 6 6 6 6 6 6 6 6 6 6 7 7 8 8 8 9 9 9 10 10 10 10 10 10 10 10 10 10 10 9 8 8 9
Wind_Direction
240 230 224 218 218 215 212 215 213 202 192 190 192 191 191 195 197 198 199 202 208 216 225 233 234 232 233 230 220 210 206 206 208 209 207 206 209 211 208 209 211 212 214 214 210 209 208 209 209 209 211 214 215 216 217 218 218 213 211 218 224 228 236 242 224 186 158 150 166 193 203 209 224 223 211 207 211 210 211 213 219 227 234 244 255
235 233 230 221 221 219 216 221 222 213 198 188 188 192 192 193 196 198 201 202 207 216 224 231 233 230 232 232 223 213 207 204 205 209 209 206 206 209 208 208 210 210 211 212 211 209 209 210 211 210 211 213 214 214 216 217 216 211 212 220 225 227 235 246 240 197 147 137 140 149 221 226 227 228 218 212 214 216 218 222 229 234 240 248 256
225 227 232 225 223 222 219 221 224 222 210 192 185 192 195 195 199 198 198 200 205 213 219 226 230 228 226 225 218 209 205 203 202 204 207 207 206 208 210 209 208 208 210 211 210 208 208 210 211 211 213 214 214 213 212 214 212 210 214 219 221 226 235 245 246 217 170 184 206 201 239 237 224 219 218 219 219 222 229 234 236 241 248 253 257
256 240 238 229 227 225 219 219 223 225 219 199 185 193 200 199 201 201 199 203 207 211 215 218 222 224 220 217 212 207 205 206 203 201 203 206 207 209 211 212 211 209 208 207 206 206 205 206 210 212 213 214 213 211 208 207 208 209 212 213 216 224 232 243 247 230 208 233 252 250 236 227 216 211 217 222 224 230 238 243 247 251 254 255 257
341 275 253 236 231 227 218 218 223 226 223 207 189 192 201 200 202 203 203 205 208 211 214 215 216 219 217 214 212 208 204 205 205 202 202 205 208 209 209 211 213 211 208 205 204 205 204 204 206 207 209 211 212 211 207 204 204 206 208 210 214 220 227 239 243 234 225 239 251 248 225 216 214 213 218 225 231 240 250 255 257 259 260 262 263
10 330 263 222 217 219 216 219 224 225 225 216 197 191 196 201 204 204 204 207 210 212 214 216 218 220 220 221 219 211 203 203 203 203 204 206 210 212 211 210 212 213 213 210 206 205 204 205 205 203 205 210 212 210 205 203 203 206 208 210 212 217 226 236 241 238 237 240 242 237 219 216 217 214 220 230 234 240 250 256 257 258 262 265 266
230 352 75 181 197 209 213 218 224 225 226 223 210 195 193 202 207 206 208 210 210 215 217 219 222 222 224 225 222 215 207 202 200 199 203 207 211 215 215 213 212 212 213 213 208 203 204 206 207 206 205 207 209 205 202 202 204 207 209 209 211 221 231 236 239 240 238 236 237 236 226 223 219 209 218 229 232 233 238 245 251 253 256 260 262
225 214 189 179 193 206 211 214 220 223 225 225 220 203 194 204 211 209 213 214 213 217 219 218 219 217 218 220 217 216 211 204 199 196 199 205 210 216 218 217 216 213 213 214 210 204 205 207 207 206 206 206 206 204 202 204 207 208 209 208 213 225 234 234 233 240 239 236 240 244 244 245 239 224 225 234 238 240 243 246 248 251 257 261 262
240 224 212 205 202 206 210 213 216 220 222 223 220 207 197 206 213 212 216 218 216 219 218 213 212 211 213 215 212 211 211 208 204 201 202 204 207 211 215 218 219 217 217 218 214 210 210 210 208 206 207 208 207 206 205 206 209 210 209 210 216 227 234 228 227 240 246 246 247 249 251 255 258 254 253 258 259 260 260 257 256 260 266 268 266
251 244 234 225 219 215 213 214 217 222 223 221 218 209 200 205 213 215 216 217 218 220 218 211 207 208 210 213 211 210 212 211 207 205 207 209 209 209 210 213 216 217 220 221 219 217 215 213 210 206 206 208 209 209 207 207 210 213 213 212 217 225 228 224 227 237 244 248 252 257 261 265 271 273 275 278 277 275 274 272 271 273 275 275 274
253 251 247 240 234 228 223 219 219 220 223 224 221 213 205 205 212 215 216 216 218 219 218 212 209 210 208 207 210 211 215 218 215 212 211 211 213 212 208 210 211 213 216 217 214 214 216 215 211 206 207 210 208 207 208 207 209 215 216 215 217 220 221 223 230 235 240 246 253 262 268 271 275 277 278 278 276 277 278 280 281 281 282 282 282
259 253 249 246 243 237 232 229 224 221 222 226 224 216 207 206 211 214 214 216 218 219 217 212 211 213 209 205 207 209 213 220 221 220 219 217 217 217 213 212 212 212 212 211 208 209 212 213 210 208 210 211 207 206 209 209 209 214 218 218 219 220 221 223 229 235 239 245 252 259 263 267 271 273 276 277 276 277 278 279 279 279 280 281 281
272 262 254 249 244 238 237 236 234 229 225 227 229 221 211 208 210 211 211 214 217 217 216 213 213 215 213 210 213 214 216 220 221 222 224 223 220 219 218 216 216 215 215 212 210 210 209 208 208 207 208 209 209 209 212 212 212 214 219 222 223 226 227 228 232 237 241 246 251 256 259 262 264 267 269 272 273 273 274 276 276 276 277 277 277
288 277 266 255 247 243 242 242 241 238 233 231 231 226 216 212 212 209 207 210 215 216 214 214 215 215 216 216 219 222 223 225 224 222 223 224 222 220 220 220 220 219 218 217 215 214 211 206 207 208 208 208 209 211 214 216 217 217 221 224 227 230 232 234 236 239 243 247 250 252 254 254 255 258 262 265 265 266 266 267 269 271 272 273 273
299 290 279 268 257 248 245 245 243 241 238 233 229 227 223 219 214 208 204 205 212 214 213 214 215 215 216 219 223 229 231 231 230 225 223 224 224 222 220 220 221 221 219 219 220 219 215 209 208 211 212 211 211 212 213 216 219 221 224 227 230 233 236 238 240 242 244 247 250 251 252 252 253 256 260 262 262 262 262 262 264 266 268 269 270
313 300 288 280 270 255 245 244 243 239 235 231 225 225 229 226 217 209 203 203 208 211 210 212 214 214 215 218 223 229 232 233 233 231 228 226 223 223 222 220 219 218 217 219 222 223 220 214 211 212 212 212 215 217 217 219 220 223 226 228 231 234 237 239 241 243 245 248 250 252 253 255 256 259 261 262 262 262 263 263 265 266 268 269 270
329 322 313 296 280 262 244 240 242 238 231 227 224 226 230 230 221 210 203 201 205 208 208 210 213 212 213 217 221 225 229 230 231 233 233 230 224 223 223 220 218 218 218 220 223 225 224 219 215 214 215 215 216 217 220 222 224 226 228 231 233 236 238 240 242 244 246 248 250 252 254 255 257 258 260 261 262 262 264 265 267 268 270 272 274
330 326 325 321 309 287 259 242 240 238 228 222 224 229 231 229 220 209 201 200 204 205 206 209 212 212 213 217 220 221 223 226 228 230 232 231 225 222 222 221 220 220 220 222 224 226 227 224 220 220 221 222 220 218 217 219 221 225 228 230 233 236 238 240 242 244 247 249 250 252 254 255 257 258 260 262 264 266 268 269 270 271 273 275 276
327 322 318 322 318 292 263 240 239 248 241 224 221 227 232 227 217 209 204 202 203 203 203 206 210 211 214 219 221 220 221 224 226 227 228 228 224 221 221 219 217 217 220 223 225 227 229 228 225 223 223 224 225 223 222 222 224 228 230 233 236 239 240 242 244 247 249 251 253 255 256 258 260 261 263 265 267 269 271 272 273 274 275 276 277
328 326 311 303 296 271 245 224 225 240 242 223 214 216 224 223 215 212 212 205 199 198 199 203 208 211 214 219 221 220 222 225 224 221 221 221 219 218 219 218 215 214 216 219 223 227 231 232 232 231 231 231 231 230 230 232 234 237 239 242 245 248 250 251 252 254 256 258 260 262 264 265 267 268 269 270 271 272 273 274 275 276 276 277 277
333 336 329 295 269 259 252 237 224 216 213 209 201 200 207 210 209 212 212 204 198 197 198 203 207 210 214 219 223 224 224 224 221 217 212 210 210 211 215 216 215 212 212 214 216 219 223 226 230 232 234 235 236 236 236 238 240 242 246 249 252 255 257 258 260 262 264 266 268 269 270 270 271 271 271 272 272 273 274 275 275 276 277 278 278
334 333 336 333 291 265 259 245 224 202 190 186 181 181 191 198 202 206 203 199 199 199 198 201 204 208 214 220 226 227 222 218 217 215 209 204 203 206 210 213 215 215 215 216 217 217 219 222 225 229 232 233 236 238 240 243 246 248 251 254 257 260 262 265 267 268 270 271 272 272 272 272 272 272 272 273 274 275 276 277 277 278 278 279 280
334 330 325 321 297 270 258 241 221 203 190 185 181 180 186 194 199 202 200 198 199 199 200 203 206 211 219 226 234 233 222 212 211 210 206 202 200 202 208 213 217 219 219 220 222 222 223 225 227 230 233 235 239 242 245 249 252 254 257 259 261 264 265 267 268 270 271 272 273 274 274 275 276 277 277 277 278 278 278 278 278 279 280 280 281
338 336 331 322 300 277 266 258 242 229 227 231 223 201 191 192 196 200 201 202 202 205 212 218 221 228 234 239 243 238 223 212 209 206 201 199 198 198 203 209 214 219 220 222 225 227 228 231 233 236 238 240 242 245 248 252 254 257 259 260 262 263 265 266 269 271 272 274 275 276 277 277 278 278 278 279 279 280 280 281 281 282 283 283 283
336 336 340 342 337 309 282 276 267 251 244 245 241 227 213 208 207 206 206 206 209 215 223 230 236 242 244 244 240 230 217 211 212 210 205 203 202 201 202 205 212 219 222 225 229 231 233 235 237 239 243 246 248 249 251 253 255 257 259 261 262 265 267 270 272 274 276 277 278 279 280 280 280 281 281 282 282 282 282 282 282 282 282 282 282
321 320 326 332 339 349 346 315 290 269 254 246 240 236 233 232 230 228 226 225 227 229 233 238 242 242 241 237 230 221 213 211 213 213 212 210 207 207 206 207 213 220 225 229 233 235 236 238 240 242 245 248 251 253 255 257 259 261 263 266 269 272 275 277 278 279 280 281 282 282 282 283 283 283 284 283 283 283 283 283 283 284 284 285 285
313 308 303 306 317 330 339 341 338 313 276 243 225 223 226 229 231 233 234 235 236 237 239 240 239 236 233 230 224 218 215 214 214 216 218 217 215 212 210 208 211 216 220 225 229 232 235 238 243 246 248 251 254 257 260 263 266 268 271 274 276 278 279 281 281 282 282 282 283 283 283 284 284 284 284 285 286 287 289 291 292 292 292 292 292
311 310 305 299 299 307 319 327 325 325 330 331 344 154 183 198 208 217 222 227 230 232 231 229 227 224 222 221 218 216 215 214 215 217 219 219 217 214 212 211 212 214 218 221 226 231 236 242 249 254 258 260 262 264 266 268 271 274 276 277 279 280 280 280 280 280 281 282 283 284 285 286 286 288 290 292 294 296 297 298 298 298 297 297 296
302 304 310 312 309 311 322 327 320 309 302 303 28 94 189 192 190 196 206 212 215 218 218 216 212 207 206 208 210 210 211 212 213 214 216 216 216 216 218 220 222 225 227 231 235 241 247 253 258 261 263 264 265 267 269 271 273 274 276 276 277 277 278 279 280 281 283 285 286 288 290 292 294 297 299 300 300 300 300 299 299 298 298 298 298
299 299 301 306 313 318 317 317 314 306 295 278 248 212 193 200 208 207 210 213 215 217 218 215 210 202 196 197 201 203 204 208 211 215 218 221 223 226 229 232 237 242 246 252 257 259 259 259 259 259 260 262 264 267 269 270 271 272 273 274 275 276 278 280 283 286 288 291 293 296 298 301 302 303 303 302 301 301 300 300 300 300 299 299 299
294 297 298 299 302 303 297 292 292 295 296 295 292 283 266 247 234 226 224 227 229 232 232 229 228 224 215 210 211 210 210 215 222 229 237 243 247 250 255 260 265 268 269 268 265 262 260 259 258 259 261 262 264 266 268 269 272 274 275 276 278 280 282 285 288 291 293 296 299 302 304 305 305 304 304 303 302 302 302 303 303 303 303 302 301
284 288 292 295 294 291 286 280 278 282 285 287 291 295 294 288 281 272 264 260 257 259 262 263 261 260 257 253 249 246 244 247 254 260 265 269 270 271 271 270 266 263 260 257 255 253 254 255 257 258 261 263 265 267 269 271 274 277 278 280 282 285 287 288 290 293 296 299 301 304 305 306 306 306 307 307 307 307 307 308 308 308 307 306 305
284 281 284 286 286 285 282 277 271 267 265 266 268 271 273 276 279 280 280 280 279 278 281 285 286 284 281 277 276 275 272 269 265 261 260 261 262 259 254 251 249 249 249 248 249 250 252 254 257 260 263 266 269 271 274 276 278 279 281 283 285 287 288 289 290 293 296 299 301 304 307 309 310 311 311 310 310 310 311 312 313 313 311 309 309
294 282 277 276 277 277 273 271 269 263 255 252 253 255 257 260 264 268 271 274 278 279 279 278 276 274 273 272 271 271 267 263 260 254 251 250 248 244 242 243 244 245 246 248 250 252 254 257 261 265 268 270 272 274 276 278 279 280 282 283 285 286 288 289 291 293 296 299 304 307 310 311 312 312 312 312 314 315 316 317 317 316 314 312 311
305 289 280 276 273 269 267 269 272 271 266 259 252 249 252 256 259 261 262 263 265 267 267 265 262 261 262 262 260 258 255 252 249 245 243 244 243 239 240 243 246 248 250 253 254 256 259 262 265 267 268 269 272 275 276 277 279 282 285 287 288 290 290 291 292 295 299 303 308 310 312 313 314 315 317 318 319 319 319 319 319 318 315 312 312
308 295 287 282 277 274 273 272 272 273 275 272 266 259 255 255 257 259 260 260 258 255 253 253 252 251 249 248 247 247 245 243 242 241 240 241 243 243 244 246 248 251 254 257 259 261 262 263 265 267 268 270 273 275 278 281 285 287 290 291 291 290 290 292 295 299 303 306 309 312 315 317 319 320 321 319 318 317 318 318 319 318 316 313 313
309 298 292 290 290 284 276 272 272 275 277 277 276 272 265 262 263 264 262 260 258 253 250 248 247 246 244 240 239 241 241 241 240 241 240 240 241 244 245 245 246 248 250 253 257 260 262 265 267 268 269 272 274 277 281 284 287 287 288 288 289 289 291 294 297 301 305 310 314 318 319 319 318 317 315 314 314 315 315 317 318 318 317 316 316
307 298 293 297 302 297 287 283 283 282 280 279 278 276 271 269 269 268 267 263 254 249 247 244 241 241 239 232 229 232 237 240 241 239 238 239 239 240 242 243 244 245 247 249 253 258 263 266 266 266 270 273 276 279 282 283 283 284 285 287 290 292 294 297 302 308 314 318 320 320 318 315 314 313 312 312 312 313 314 316 316 316 317 317 316
300 290 280 293 304 313 316 315 311 302 294 288 281 275 272 269 266 263 263 262 254 247 244 239 236 236 234 228 226 227 231 238 242 239 236 237 239 240 242 244 246 249 251 252 254 257 259 261 263 266 272 274 275 278 280 281 284 287 290 293 296 299 303 310 315 318 320 320 318 316 314 313 313 313 314 314 315 315 315 316 316 316 317 317 314
286 269 256 278 292 313 332 335 333 325 315 301 288 280 276 273 269 263 259 258 256 251 245 237 232 233 233 231 231 231 231 236 243 245 243 242 242 243 245 245 246 248 249 250 250 250 252 258 264 269 273 276 278 281 284 287 292 295 300 305 309 314 318 320 320 319 318 316 315 315 315 316 317 318 319 319 319 319 318 318 318 317 317 317 314
272 257 272 293 302 324 339 340 340 338 333 322 307 296 288 279 272 265 259 257 256 254 252 246 239 237 235 233 233 235 235 237 240 243 244 243 241 241 242 242 241 241 241 241 242 245 249 256 264 271 278 283 286 289 293 299 303 308 313 317 319 320 320 318 316 315 315 315 316 317 319 320 322 323 324 324 323 323 322 323 323 322 321 320 318
254 230 247 284 304 329 339 339 341 344 344 338 324 309 298 284 273 266 263 262 261 259 257 257 254 250 245 238 233 232 234 236 236 235 236 237 237 235 235 235 235 236 236 236 238 243 251 260 271 281 287 290 294 299 307 313 315 316 315 315 314 313 313 313 313 314 315 316 319 321 323 324 325 326 327 327 327 328 328 329 330 328 327 328 327
235 224 234 255 285 328 336 333 338 347 348 342 328 311 299 288 276 268 265 266 269 269 264 259 258 256 251 244 236 229 227 231 234 233 231 231 230 227 225 226 227 229 232 234 239 247 258 270 281 289 293 298 305 311 314 314 311 308 307 306 307 308 310 311 312 314 316 319 322 324 326 327 327 328 330 330 332 333 334 335 336 336 336 338 339
257 265 250 245 272 327 329 324 333 345 347 343 332 316 303 295 287 277 268 267 272 276 271 264 260 257 253 250 244 233 224 224 228 230 229 227 224 221 219 219 221 225 229 235 243 259 274 284 293 300 305 309 311 310 308 306 304 302 303 305 307 309 311 313 315 318 321 323 325 328 329 329 330 331 332 333 335 337 337 339 341 343 344 346 347
296 302 274 258 294 322 322 323 335 345 344 339 332 321 309 299 292 287 282 278 279 280 278 272 266 260 255 250 244 235 226 221 220 221 220 218 217 217 217 219 222 226 233 243 259 281 296 302 306 309 311 311 309 307 305 304 303 303 305 306 308 310 313 315 319 322 325 328 330 332 333 334 335 336 337 338 340 340 339 341 346 349 349 348 348
292 306 305 301 307 312 316 327 338 342 339 336 333 326 314 301 295 295 294 291 290 289 285 278 268 258 250 244 236 229 224 219 215 213 211 210 211 214 218 223 227 233 243 261 281 294 301 305 306 306 306 306 305 305 305 305 305 306 307 309 312 315 318 321 324 328 330 333 336 337 338 341 343 344 344 345 346 346 345 346 350 352 351 347 345
286 287 292 295 297 300 307 319 329 331 329 330 331 328 317 304 298 298 298 297 298 296 290 283 273 258 244 235 226 220 216 213 211 210 208 207 210 215 218 221 227 234 246 266 284 293 299 303 304 304 305 307 308 309 309 310 311 313 315 318 322 325 327 329 331 334 336 340 342 343 345 348 351 352 354 355 355 353 352 353 354 352 351 348 345
288 285 283 283 288 295 302 310 318 320 317 316 320 323 318 307 297 295 298 302 303 301 293 283 273 260 244 231 221 217 215 213 210 209 208 208 211 215 219 221 223 226 238 264 281 292 303 311 315 318 318 319 320 320 320 321 324 327 330 332 334 334 334 335 337 340 343 346 347 348 349 350 351 355 0 4 3 360 358 359 358 354 350 350 349
289 287 287 288 291 295 300 305 307 307 304 304 307 311 314 309 299 296 299 303 304 302 293 277 264 252 238 226 218 214 214 215 213 211 211 212 215 217 219 223 222 213 214 245 275 299 317 328 333 334 332 331 331 332 334 338 341 343 344 344 342 339 339 340 343 345 347 347 346 347 346 345 346 352 358 1 3 1 359 1 3 357 350 351 354
294 289 290 292 290 288 289 293 294 293 295 298 301 306 313 314 305 300 302 304 304 302 291 269 252 239 227 222 216 208 205 212 217 216 212 211 211 207 204 208 211 205 202 215 257 328 342 342 341 340 338 339 342 347 351 354 354 352 350 349 348 345 345 347 348 346 345 343 341 340 339 337 341 349 355 356 357 357 355 358 3 359 351 352 356
303 295 291 288 286 286 289 291 291 291 292 292 296 305 315 319 310 305 307 308 306 302 288 264 248 233 220 216 215 211 208 212 218 216 208 200 195 190 188 190 193 193 192 187 137 16 5 356 350 347 347 350 355 359 3 2 359 356 356 357 356 354 351 348 343 340 341 340 337 338 338 337 341 352 358 357 357 358 356 355 359 359 354 352 354
Height
3097 3098 3101 3104 3106 3107 3109 3110 3109 3107 3106 3109 3112 3114 3116 3118 3120 3122 3123 3124 3124 3125 3125 3125 3125 3125 3126 3127 3129 3130 3131 3131 3131 3132 3133 3134 3134 3135 3136 3136 3137 3138 3138 3139 3140 3141 3142 3143 3144 3146 3147 3148 3149 3150 3151 3152 3154 3155 3156 3157 3158 3159 3159 3161 3162 3162 3161 3161 3161 3161 3162 3162 3163 3164 3164 3164 3165 3165 3166 3166 3167 3167 3167 3168 3168
3096 3098 3100 3103 3104 3105 3107 3109 3110 3109 3106 3106 3110 3113 3115 3117 3119 3120 3122 3123 3123 3124 3124 3124 3125 3125 3125 3126 3127 3129 3130 3130 3130 3131 3131 3132 3133 3134 3134 3135 3136 3137 3138 3139 3140 3141 3142 3142 3143 3145 3146 3147 3148 3149 3150 3151 3152 3153 3155 3156 3157 3158 3158 3159 3160 3161 3160 3161 3161 3161 3161 3162 3162 3163 3163 3164 3164 3165 3165 3166 3166 3166 3167 3167 3167
3094 3096 3098 3101 3102 3103 3105 3107 3109 3110 3108 3106 3109 3113 3114 3115 3118 3119 3120 3121 3122 3123 3124 3124 3124 3124 3124 3125 3126 3128 3129 3129 3130 3130 3130 3131 3132 3132 3133 3134 3135 3136 3137 3137 3138 3140 3141 3142 3143 3143 3145 3146 3147 3148 3148 3149 3151 3152 3153 3155 3156 3157 3157 3158 3159 3160 3160 3160 3161 3161 3161 3161 3162 3162 3163 3163 3163 3164 3164 3165 3165 3166 3166 3166 3166
3093 3094 3096 3098 3100 3101 3103 3105 3107 3109 3110 3108 3108 3112 3114 3115 3117 3118 3119 3120 3122 3123 3124 3124 3124 3124 3124 3124 3125 3126 3127 3128 3128 3129 3129 3129 3131 3132 3132 3133 3134 3135 3136 3136 3137 3138 3139 3141 3142 3142 3143 3144 3145 3146 3147 3148 3149 3151 3152 3153 3154 3155 3156 3157 3158 3158 3159 3160 3160 3161 3160 3160 3161 3161 3161 3162 3162 3163 3163 3163 3164 3164 3165 3165 3165
3092 3093 3093 3093 3096 3100 3101 3104 3105 3107 3109 3108 3107 3110 3114 3115 3116 3117 3118 3119 3121 3122 3123 3123 3123 3123 3124 3124 3124 3125 3126 3126 3127 3127 3128 3128 3130 3131 3131 3132 3133 3134 3135 3135 3136 3137 3138 3139 3140 3141 3142 3143 3144 3144 3145 3147 3148 3149 3151 3152 3153 3154 3155 3156 3156 3157 3157 3159 3160 3160 3159 3159 3159 3159 3160 3161 3161 3162 3162 3162 3163 3163 3163 3163 3163
3091 3091 3088 3087 3093 3098 3100 3102 3104 3106 3108 3109 3107 3108 3112 3115 3116 3117 3118 3119 3120 3121 3122 3122 3122 3123 3123 3123 3123 3124 3125 3125 3126 3126 3127 3127 3128 3129 3130 3131 3132 3132 3134 3135 3136 3137 3137 3138 3139 3140 3141 3142 3142 3143 3144 3145 3147 3148 3149 3151 3152 3153 3154 3155 3155 3155 3156 3158 3159 3159 3159 3158 3158 3159 3159 3160 3160 3161 3161 3161 3162 3162 3162 3162 3162
3090 3090 3088 3088 3093 3097 3098 3100 3102 3103 3106 3109 3109 3108 3111 3115 3116 3117 3118 3118 3118 3120 3120 3121 3121 3122 3122 3122 3122 3122 3123 3124 3125 3126 3126 3126 3127 3127 3129 3130 3131 3132 3133 3134 3135 3136 3136 3137 3138 3139 3140 3140 3141 3142 3143 3145 3146 3147 3148 3150 3151 3152 3153 3153 3153 3154 3155 3156 3157 3158 3158 3158 3158 3158 3159 3159 3159 3159 3160 3160 3161 3161 3161 3161 3161
3089 3089 3089 3090 3092 3093 3094 3096 3097 3099 3102 3107 3110 3110 3111 3114 3115 3116 3116 3117 3117 3118 3118 3119 3120 3121 3121 3121 3120 3120 3121 3122 3123 3124 3125 3126 3126 3127 3127 3128 3130 3132 3132 3133 3134 3135 3135 3136 3136 3137 3138 3138 3139 3141 3142 3143 3145 3146 3147 3149 3150 3151 3151 3151 3152 3152 3154 3155 3156 3157 3157 3157 3157 3158 3158 3158 3158 3159 3159 3159 3159 3160 3159 3159 3160
3085 3086 3087 3088 3089 3090 3091 3092 3093 3096 3098 3102 3107 3109 3109 3111 3113 3113 3114 3115 3116 3117 3117 3118 3119 3120 3120 3119 3119 3119 3119 3120 3121 3122 3123 3124 3125 3126 3127 3127 3129 3130 3131 3132 3133 3134 3134 3135 3135 3135 3136 3137 3137 3139 3140 3142 3143 3145 3146 3148 3149 3149 3150 3150 3150 3151 3153 3154 3155 3155 3156 3156 3156 3156 3156 3157 3157 3158 3157 3157 3158 3158 3157 3157 3157
3083 3083 3084 3086 3086 3087 3089 3091 3092 3094 3096 3098 3102 3105 3106 3108 3109 3110 3111 3113 3114 3115 3116 3117 3118 3118 3118 3118 3118 3118 3118 3119 3120 3121 3122 3123 3124 3125 3126 3127 3128 3129 3130 3131 3132 3132 3133 3133 3134 3134 3135 3135 3136 3137 3139 3140 3142 3144 3145 3146 3147 3148 3148 3149 3149 3150 3151 3152 3153 3154 3154 3154 3154 3154 3154 3154 3155 3155 3155 3154 3155 3155 3154 3153 3153
3082 3082 3082 3083 3084 3087 3089 3090 3090 3091 3094 3096 3099 3101 3103 3104 3105 3106 3108 3111 3112 3113 3114 3116 3116 3117 3117 3117 3117 3117 3117 3118 3119 3119 3120 3121 3122 3123 3125 3126 3127 3128 3128 3129 3130 3131 3131 3132 3133 3133 3134 3134 3134 3135 3137 3139 3140 3142 3143 3145 3146 3146 3146 3147 3148 3149 3150 3151 3151 3152 3152 3152 3152 3152 3152 3152 3152 3152 3152 3151 3151 3151 3150 3149 3149
3080 3080 3079 3080 3083 3085 3085 3085 3087 3090 3093 3093 3094 3097 3098 3099 3100 3103 3106 3108 3109 3111 3112 3114 3115 3115 3116 3116 3116 3117 3117 3117 3117 3118 3119 3119 3120 3121 3123 3124 3125 3126 3127 3128 3129 3129 3130 3130 3131 3132 3133 3133 3133 3134 3135 3137 3139 3140 3141 3142 3143 3144 3145 3146 3147 3148 3148 3149 3149 3150 3150 3150 3150 3150 3150 3150 3150 3150 3149 3149 3148 3148 3148 3147 3146
3077 3077 3077 3078 3080 3081 3080 3081 3084 3087 3089 3089 3090 3093 3093 3094 3095 3098 3102 3105 3107 3108 3110 3111 3112 3113 3114 3114 3115 3115 3116 3116 3116 3116 3117 3117 3118 3119 3120 3122 3123 3124 3125 3126 3127 3128 3128 3129 3130 3130 3131 3132 3133 3134 3134 3135 3137 3138 3140 3141 3142 3143 3144 3145 3145 3146 3147 3147 3148 3148 3148 3148 3148 3148 3148 3148 3147 3147 3146 3146 3145 3144 3144 3144 3143
3075 3074 3074 3075 3076 3077 3078 3080 3081 3082 3084 3085 3086 3088 3089 3090 3092 3094 3097 3101 3104 3105 3107 3108 3109 3111 3111 3112 3112 3113 3113 3114 3114 3115 3115 3115 3115 3116 3118 3119 3120 3121 3123 3124 3125 3126 3127 3128 3128 3129 3130 3130 3132 3133 3133 3134 3135 3137 3138 3139 3140 3142 3142 3143 3144 3145 3145 3146 3146 3147 3147 3147 3147 3146 3146 3146 3146 3145 3145 3144 3143 3142 3141 3140 3140
3073 3072 3071 3071 3072 3073 3075 3078 3078 3079 3080 3082 3083 3085 3086 3087 3089 3089 3092 3097 3100 3102 3104 3105 3107 3108 3109 3109 3110 3110 3111 3111 3112 3112 3113 3113 3113 3114 3116 3117 3117 3119 3121 3122 3123 3124 3125 3126 3127 3127 3128 3129 3130 3131 3132 3133 3134 3135 3136 3137 3138 3139 3140 3141 3142 3143 3143 3144 3144 3144 3144 3144 3144 3144 3144 3143 3143 3142 3142 3141 3141 3140 3138 3136 3136
3071 3070 3069 3069 3069 3070 3071 3074 3075 3076 3077 3078 3080 3082 3082 3083 3085 3086 3088 3093 3097 3099 3101 3102 3104 3105 3106 3107 3107 3108 3108 3108 3109 3109 3110 3111 3112 3113 3114 3115 3116 3117 3119 3120 3121 3122 3123 3124 3125 3126 3126 3127 3128 3129 3130 3131 3132 3133 3134 3135 3136 3137 3138 3139 3139 3140 3140 3141 3141 3141 3141 3141 3141 3140 3140 3139 3139 3138 3137 3137 3136 3135 3132 3131 3131
3070 3069 3068 3068 3067 3067 3068 3070 3072 3072 3073 3074 3077 3079 3078 3078 3080 3082 3085 3089 3093 3095 3097 3099 3100 3102 3103 3104 3105 3105 3106 3106 3106 3107 3107 3109 3110 3111 3111 3113 3114 3115 3116 3118 3119 3120 3121 3122 3123 3124 3125 3126 3126 3127 3128 3129 3130 3131 3132 3133 3133 3134 3135 3136 3136 3137 3137 3137 3137 3137 3137 3137 3137 3136 3136 3135 3134 3133 3132 3132 3132 3130 3128 3126 3126
3069 3068 3067 3067 3066 3066 3067 3068 3068 3068 3069 3072 3073 3074 3074 3075 3076 3079 3082 3086 3089 3092 3093 3095 3097 3098 3099 3100 3101 3102 3103 3104 3104 3104 3105 3106 3108 3108 3109 3110 3112 3113 3114 3115 3117 3118 3119 3120 3121 3122 3123 3124 3124 3125 3126 3127 3128 3129 3129 3130 3131 3132 3132 3133 3133 3134 3134 3134 3134 3134 3133 3133 3133 3132 3132 3131 3129 3129 3128 3127 3127 3126 3124 3123 3121
3069 3068 3067 3066 3066 3066 3066 3066 3066 3066 3068 3071 3070 3070 3071 3072 3074 3077 3080 3083 3086 3087 3089 3091 3093 3094 3096 3096 3097 3099 3100 3101 3102 3102 3103 3104 3105 3106 3107 3108 3109 3110 3111 3112 3114 3115 3116 3117 3119 3120 3121 3122 3122 3123 3124 3125 3125 3126 3127 3128 3128 3129 3129 3130 3130 3130 3130 3130 3130 3130 3129 3129 3129 3128 3128 3127 3125 3125 3124 3123 3122 3121 3120 3118 3116
3069 3068 3067 3067 3067 3067 3067 3067 3067 3067 3068 3068 3068 3068 3069 3071 3074 3076 3078 3081 3083 3083 3085 3087 3088 3090 3092 3093 3094 3095 3096 3098 3099 3099 3100 3101 3103 3104 3105 3106 3107 3108 3109 3110 3111 3112 3114 3115 3116 3117 3118 3119 3119 3120 3121 3121 3122 3123 3123 3124 3124 3125 3125 3126 3126 3126 3126 3126 3125 3125 3125 3125 3125 3124 3123 3122 3121 3120 3119 3118 3117 3115 3114 3112 3111
3069 3068 3067 3067 3067 3068 3068 3069 3068 3067 3067 3067 3067 3067 3067 3068 3072 3075 3077 3079 3081 3080 3081 3083 3085 3087 3088 3090 3091 3092 3093 3094 3095 3096 3097 3099 3101 3102 3103 3104 3105 3106 3107 3108 3109 3110 3111 3112 3113 3114 3114 3115 3116 3116 3117 3118 3118 3119 3120 3120 3120 3121 3121 3121 3122 3122 3122 3122 3122 3122 3122 3121 3120 3120 3119 3117 3116 3115 3114 3112 3111 3109 3108 3106 3104
3069 3068 3068 3067 3068 3068 3068 3069 3068 3067 3066 3066 3067 3067 3066 3066 3069 3071 3074 3076 3078 3078 3078 3079 3081 3083 3085 3087 3089 3090 3090 3091 3092 3093 3094 3095 3097 3099 3101 3101 3102 3103 3105 3106 3107 3108 3109 3109 3110 3111 3111 3112 3112 3113 3114 3115 3116 3116 3117 3117 3117 3118 3118 3118 3118 3118 3119 3119 3118 3118 3117 3116 3115 3114 3113 3111 3110 3109 3108 3107 3105 3103 3102 3100 3098
3070 3068 3068 3067 3068 3068 3068 3068 3068 3068 3067 3067 3067 3067 3066 3066 3068 3070 3071 3073 3074 3075 3077 3077 3078 3080 3082 3084 3086 3087 3088 3087 3088 3089 3090 3091 3093 3095 3097 3098 3099 3100 3101 3103 3104 3105 3106 3106 3107 3108 3108 3109 3110 3111 3112 3112 3113 3114 3114 3114 3115 3115 3115 3115 3114 3114 3114 3114 3113 3112 3111 3110 3109 3108 3107 3105 3104 3103 3102 3100 3099 3098 3095 3094 3092
3070 3069 3068 3067 3067 3067 3067 3067 3068 3068 3068 3068 3068 3067 3066 3066 3067 3068 3069 3071 3072 3074 3075 3075 3076 3077 3079 3081 3083 3084 3085 3085 3085 3085 3086 3088 3089 3090 3092 3094 3096 3097 3099 3100 3101 3102 3103 3104 3104 3105 3106 3107 3108 3108 3109 3110 3110 3110 3111 3111 3111 3111 3110 3110 3110 3110 3109 3108 3108 3107 3106 3105 3104 3102 3101 3100 3098 3097 3096 3094 3093 3091 3089 3087 3086
3071 3070 3069 3068 3068 3067 3067 3067 3067 3067 3068 3068 3068 3068 3068 3068 3068 3068 3068 3069 3071 3072 3073 3073 3073 3075 3077 3077 3078 3080 3081 3082 3082 3082 3083 3084 3085 3086 3088 3090 3092 3094 3096 3097 3098 3099 3100 3101 3101 3102 3103 3104 3104 3105 3105 3106 3106 3106 3107 3107 3107 3106 3106 3106 3106 3105 3104 3103 3102 3101 3100 3099 3098 3097 3096 3094 3093 3091 3090 3089 3087 3086 3084 3082 3080
3071 3070 3070 3069 3069 3068 3067 3067 3067 3067 3067 3067 3067 3067 3067 3067 3068 3068 3068 3069 3070 3070 3070 3070 3071 3072 3073 3074 3074 3075 3077 3078 3079 3080 3081 3081 3083 3084 3085 3087 3089 3091 3092 3093 3094 3095 3096 3097 3097 3098 3099 3100 3100 3101 3101 3101 3102 3102 3102 3102 3102 3102 3101 3101 3100 3100 3099 3098 3097 3096 3095 3094 3093 3092 3090 3089 3087 3086 3084 3083 3082 3080 3078 3076 3075
3071 3070 3069 3069 3069 3068 3068 3068 3067 3067 3067 3067 3066 3066 3066 3066 3066 3066 3067 3067 3068 3068 3068 3068 3069 3070 3070 3071 3072 3072 3073 3075 3076 3077 3078 3079 3081 3081 3082 3083 3085 3086 3088 3089 3090 3091 3092 3093 3093 3094 3095 3096 3096 3097 3097 3098 3098 3098 3098 3098 3097 3097 3097 3096 3095 3094 3093 3093 3092 3091 3090 3089 3088 3087 3085 3084 3082 3080 3079 3077 3075 3074 3072 3070 3068
3070 3070 3069 3069 3069 3068 3068 3068 3067 3067 3067 3066 3066 3066 3066 3065 3065 3065 3065 3066 3066 3066 3066 3067 3067 3067 3068 3068 3069 3070 3071 3072 3074 3075 3076 3077 3078 3079 3080 3080 3081 3082 3084 3085 3086 3087 3088 3089 3090 3091 3092 3092 3093 3094 3094 3094 3094 3094 3094 3094 3093 3092 3092 3091 3090 3090 3089 3088 3088 3087 3086 3085 3083 3082 3081 3079 3077 3075 3073 3071 3069 3067 3065 3064 3062
3070 3070 3069 3069 3069 3068 3068 3068 3068 3067 3067 3067 3066 3066 3066 3066 3065 3065 3065 3065 3066 3066 3066 3066 3066 3066 3067 3067 3068 3069 3070 3070 3071 3072 3074 3075 3076 3077 3078 3079 3080 3081 3082 3083 3084 3085 3086 3087 3088 3089 3089 3089 3090 3090 3090 3090 3090 3090 3090 3090 3089 3088 3087 3087 3086 3085 3085 3084 3083 3082 3081 3080 3079 3077 3076 3074 3072 3070 3068 3066 3064 3063 3060 3058 3056
3070 3069 3069 3069 3069 3068 3068 3067 3067 3067 3067 3066 3066 3066 3065 3065 3065 3065 3065 3065 3065 3065 3065 3066 3066 3066 3066 3067 3067 3068 3068 3069 3070 3071 3072 3073 3074 3075 3077 3078 3079 3080 3081 3081 3082 3083 3084 3085 3086 3086 3087 3087 3087 3087 3088 3088 3088 3087 3087 3086 3086 3085 3084 3083 3082 3082 3081 3080 3079 3078 3077 3076 3074 3073 3071 3070 3068 3066 3064 3062 3060 3058 3056 3054 3052
3069 3069 3068 3068 3068 3067 3067 3066 3066 3066 3066 3066 3066 3065 3065 3065 3065 3065 3065 3065 3065 3065 3065 3065 3065 3065 3066 3066 3067 3067 3067 3068 3069 3069 3070 3071 3073 3074 3075 3077 3077 3078 3079 3080 3081 3081 3082 3083 3083 3084 3084 3085 3085 3085 3085 3085 3084 3084 3083 3083 3082 3081 3081 3080 3079 3078 3077 3076 3075 3074 3073 3072 3070 3069 3067 3066 3064 3062 3060 3058 3056 3054 3052 3049 3047
3068 3068 3067 3067 3066 3066 3065 3065 3065 3065 3065 3065 3064 3064 3064 3064 3064 3064 3064 3064 3064 3064 3064 3064 3064 3064 3065 3065 3066 3066 3067 3067 3068 3069 3070 3071 3072 3074 3075 3076 3077 3078 3078 3079 3079 3080 3080 3080 3081 3081 3081 3082 3082 3082 3082 3081 3081 3081 3080 3079 3079 3078 3077 3077 3076 3075 3074 3073 3072 3071 3070 3068 3067 3066 3064 3062 3060 3059 3057 3055 3053 3050 3048 3045 3043
3066 3066 3066 3066 3065 3065 3064 3064 3064 3064 3064 3064 3063 3063 3063 3063 3063 3063 3063 3063 3063 3063 3063 3064 3064 3064 3064 3064 3065 3065 3066 3067 3068 3069 3070 3071 3072 3074 3075 3076 3076 3077 3077 3077 3077 3078 3078 3078 3078 3078 3079 3079 3079 3078 3078 3078 3078 3077 3077 3076 3076 3075 3074 3073 3073 3072 3071 3070 3069 3068 3067 3066 3064 3062 3060 3059 3057 3055 3053 3051 3048 3046 3044 3041 3039
3065 3064 3064 3064 3064 3064 3063 3063 3063 3063 3063 3063 3062 3062 3062 3062 3062 3062 3062 3062 3062 3062 3062 3063 3063 3063 3063 3064 3064 3065 3065 3066 3067 3068 3069 3070 3072 3073 3073 3074 3074 3075 3075 3075 3075 3075 3075 3075 3076 3076 3076 3076 3076 3076 3076 3075 3075 3075 3074 3074 3073 3072 3071 3070 3070 3069 3068 3067 3066 3065 3064 3062 3061 3059 3057 3055 3053 3051 3049 3047 3045 3042 3040 3038 3035
3064 3063 3062 3063 3063 3062 3062 3061 3061 3061 3061 3061 3061 3061 3061 3061 3061 3061 3061 3061 3061 3061 3061 3061 3061 3061 3062 3063 3064 3064 3064 3065 3066 3067 3068 3068 3070 3071 3071 3072 3072 3072 3072 3072 3072 3073 3073 3073 3073 3074 3074 3073 3073 3073 3073 3073 3072 3072 3071 3071 3070 3069 3069 3068 3067 3067 3066 3065 3063 3062 3061 3059 3057 3055 3053 3051 3049 3047 3046 3044 3042 3040 3037 3034 3032
3063 3062 3061 3061 3061 3061 3061 3061 3060 3060 3059 3059 3059 3060 3060 3060 3059 3059 3060 3060 3060 3060 3060 3060 3060 3060 3061 3062 3062 3063 3063 3064 3064 3065 3066 3067 3067 3068 3069 3069 3069 3070 3070 3070 3070 3070 3071 3071 3071 3071 3071 3071 3071 3071 3071 3070 3070 3069 3069 3068 3068 3067 3067 3066 3065 3064 3063 3062 3061 3059 3057 3055 3053 3051 3050 3048 3047 3045 3043 3041 3039 3037 3034 3031 3029
3062 3061 3061 3060 3060 3061 3060 3060 3059 3059 3059 3058 3058 3058 3059 3059 3058 3058 3058 3058 3059 3059 3058 3058 3058 3059 3059 3060 3061 3061 3062 3062 3063 3064 3064 3065 3066 3066 3067 3067 3067 3068 3068 3068 3068 3068 3068 3069 3069 3069 3069 3069 3068 3068 3068 3068 3067 3067 3067 3066 3066 3065 3064 3064 3063 3062 3060 3059 3057 3055 3054 3052 3051 3049 3048 3047 3045 3043 3041 3039 3036 3034 3031 3028 3026
3061 3060 3060 3059 3059 3059 3059 3059 3059 3058 3058 3058 3057 3057 3057 3057 3057 3057 3056 3057 3057 3057 3056 3056 3057 3058 3058 3059 3059 3059 3060 3061 3061 3062 3063 3064 3064 3065 3065 3065 3066 3066 3067 3067 3067 3066 3066 3066 3066 3066 3066 3066 3066 3066 3066 3066 3066 3065 3065 3064 3064 3063 3062 3061 3060 3058 3057 3055 3053 3052 3051 3050 3049 3047 3046 3044 3042 3040 3038 3036 3033 3031 3028 3026 3024
3060 3060 3059 3059 3059 3058 3058 3058 3058 3058 3057 3057 3057 3056 3056 3056 3056 3056 3055 3055 3055 3055 3055 3055 3055 3056 3057 3057 3058 3058 3058 3059 3059 3060 3061 3062 3063 3063 3063 3063 3064 3064 3064 3065 3065 3065 3064 3064 3065 3065 3065 3065 3065 3064 3064 3064 3063 3063 3062 3062 3061 3060 3059 3058 3056 3055 3054 3052 3051 3050 3049 3048 3046 3045 3043 3041 3039 3036 3034 3032 3030 3028 3025 3023 3021
3059 3059 3059 3059 3058 3058 3058 3058 3057 3057 3057 3056 3055 3055 3054 3054 3054 3054 3054 3054 3054 3054 3054 3054 3054 3055 3056 3056 3056 3057 3057 3057 3058 3059 3059 3060 3061 3061 3061 3062 3062 3062 3063 3063 3063 3063 3063 3063 3063 3063 3063 3063 3063 3062 3062 3062 3061 3061 3060 3059 3058 3056 3055 3054 3053 3053 3052 3051 3050 3048 3047 3045 3043 3041 3039 3037 3035 3033 3031 3029 3027 3025 3023 3021 3019
3059 3059 3059 3058 3058 3058 3058 3058 3057 3056 3055 3055 3054 3054 3053 3053 3053 3053 3052 3052 3052 3053 3053 3053 3053 3054 3054 3055 3055 3055 3056 3056 3056 3057 3058 3058 3059 3059 3060 3060 3061 3061 3061 3061 3062 3062 3062 3062 3062 3062 3061 3061 3061 3060 3060 3059 3059 3058 3057 3055 3054 3054 3053 3053 3052 3051 3050 3049 3047 3046 3044 3042 3040 3038 3036 3034 3032 3030 3028 3026 3024 3022 3020 3019 3017
3059 3059 3058 3058 3058 3058 3058 3058 3057 3056 3055 3054 3053 3052 3052 3051 3051 3051 3051 3051 3051 3052 3052 3052 3052 3052 3053 3053 3054 3054 3054 3054 3055 3056 3056 3057 3057 3058 3058 3059 3059 3059 3060 3060 3060 3060 3060 3060 3060 3059 3059 3059 3058 3058 3057 3056 3055 3055 3054 3054 3053 3053 3052 3052 3050 3049 3048 3046 3045 3043 3041 3039 3037 3035 3033 3032 3030 3028 3026 3025 3023 3021 3019 3017 3016
3058 3058 3058 3057 3057 3058 3058 3057 3056 3055 3054 3054 3053 3052 3051 3050 3050 3049 3049 3049 3050 3050 3050 3050 3050 3050 3050 3051 3052 3052 3053 3053 3053 3054 3055 3055 3056 3056 3057 3057 3058 3058 3058 3058 3058 3058 3058 3058 3058 3058 3057 3057 3056 3055 3054 3054 3053 3053 3053 3053 3052 3052 3051 3050 3048 3047 3045 3044 3042 3040 3039 3037 3035 3033 3032 3030 3028 3027 3025 3023 3022 3020 3018 3017 3015
3059 3058 3058 3057 3058 3058 3058 3057 3056 3055 3054 3053 3052 3051 3050 3049 3049 3048 3048 3048 3048 3048 3048 3048 3048 3048 3048 3049 3049 3050 3051 3051 3052 3053 3053 3054 3054 3055 3055 3056 3056 3056 3056 3056 3056 3056 3056 3056 3056 3055 3054 3054 3053 3053 3053 3053 3053 3052 3052 3051 3050 3049 3048 3047 3046 3045 3043 3042 3040 3038 3037 3035 3034 3032 3031 3029 3027 3026 3024 3023 3021 3020 3018 3016 3015
3059 3058 3058 3058 3058 3058 3057 3057 3055 3054 3053 3053 3051 3050 3049 3049 3048 3048 3047 3047 3047 3047 3047 3047 3047 3047 3047 3047 3048 3048 3049 3050 3051 3051 3052 3052 3053 3053 3053 3054 3054 3054 3054 3054 3054 3054 3054 3054 3053 3053 3052 3052 3052 3052 3052 3051 3051 3050 3050 3049 3048 3047 3046 3045 3044 3042 3041 3040 3038 3037 3035 3034 3033 3031 3030 3028 3027 3025 3024 3022 3021 3019 3018 3017 3015
3059 3059 3058 3058 3057 3057 3057 3056 3055 3054 3053 3052 3051 3050 3049 3048 3048 3047 3047 3047 3046 3046 3046 3046 3046 3046 3046 3046 3047 3047 3048 3048 3049 3050 3050 3051 3051 3051 3052 3052 3052 3053 3053 3053 3053 3052 3052 3052 3052 3052 3052 3051 3051 3051 3050 3050 3049 3048 3047 3046 3046 3045 3044 3043 3042 3040 3039 3038 3037 3036 3034 3033 3032 3031 3029 3028 3026 3025 3023 3022 3021 3019 3018 3017 3015
3059 3058 3058 3057 3056 3055 3055 3055 3054 3054 3053 3052 3051 3050 3049 3048 3047 3047 3046 3046 3046 3045 3045 3045 3045 3045 3045 3045 3046 3046 3047 3047 3048 3048 3049 3049 3050 3050 3051 3051 3051 3051 3051 3051 3051 3051 3051 3051 3051 3051 3051 3050 3050 3049 3048 3048 3047 3046 3045 3044 3043 3043 3042 3041 3040 3039 3038 3037 3036 3035 3034 3033 3032 3030 3029 3028 3026 3025 3023 3022 3020 3019 3018 3017 3016
3058 3058 3057 3056 3055 3054 3054 3054 3053 3053 3052 3051 3050 3049 3048 3047 3047 3046 3045 3045 3045 3045 3044 3044 3044 3044 3045 3045 3045 3045 3046 3046 3046 3047 3048 3048 3049 3049 3049 3050 3050 3050 3050 3050 3050 3050 3050 3050 3050 3050 3049 3049 3048 3047 3047 3046 3045 3044 3043 3043 3042 3041 3040 3040 3039 3038 3037 3036 3035 3034 3033 3032 3031 3030 3029 3028 3026 3025 3023 3022 3021 3020 3018 3017 3016
3057 3056 3056 3055 3054 3053 3052 3052 3052 3051 3050 3050 3049 3049 3048 3047 3046 3045 3045 3045 3044 3044 3044 3043 3043 3044 3044 3044 3044 3044 3045 3045 3046 3046 3047 3047 3048 3048 3048 3048 3048 3049 3049 3049 3049 3049 3049 3048 3048 3048 3048 3047 3047 3046 3045 3044 3043 3043 3042 3041 3041 3040 3039 3039 3038 3037 3036 3036 3035 3034 3033 3032 3031 3030 3029 3027 3026 3025 3023 3022 3021 3020 3019 3018 3016
3056 3055 3055 3054 3053 3052 3052 3051 3051 3050 3049 3048 3048 3047 3047 3046 3046 3045 3044 3044 3044 3043 3043 3043 3042 3043 3043 3043 3043 3044 3044 3044 3045 3045 3046 3046 3047 3047 3047 3047 3047 3048 3048 3048 3048 3048 3048 3047 3047 3047 3047 3046 3045 3045 3044 3043 3042 3041 3041 3041 3040 3040 3039 3039 3038 3037 3037 3036 3035 3034 3033 3032 3031 3030 3029 3027 3026 3025 3023 3022 3021 3020 3019 3018 3017
3055 3054 3053 3053 3052 3051 3050 3049 3049 3048 3048 3047 3047 3046 3046 3046 3045 3044 3044 3043 3043 3042 3042 3042 3042 3042 3042 3042 3042 3043 3043 3043 3044 3044 3045 3045 3046 3046 3046 3047 3047 3047 3047 3047 3047 3047 3047 3047 3047 3046 3046 3045 3044 3043 3042 3042 3041 3041 3041 3040 3040 3040 3039 3039 3038 3037 3037 3036 3035 3034 3033 3032 3031 3030 3028 3027 3026 3025 3023 3022 3021 3020 3019 3018 3017